• In Hungary
  • List of Countries
  • For 7 days
  • Water Temperature
  • Satellite Maps
  • Weather Map
  • News
  • Weather Widgets
  • user-avatar
    Login

    Hourly Weather Chukiv

    Today, 19 August, Sunday

    Time Temperature Precipitation Wind Pressure Humidity
    00:00 +21°C° 0.8 mm 2 mps 741 mmHg 74%
    01:00 +20°C° 0.8 mm 2 mps 741 mmHg 79%
    02:00 +20°C° 0 mm 1 mps 741 mmHg 84%
    03:00 +20°C° 0.1 mm 1 mps 741 mmHg 85%
    04:00 +20°C° 0.1 mm 1 mps 741 mmHg 85%
    05:00 +19°C° 0.1 mm 1 mps 741 mmHg 86%
    06:00 +21°C° 0 mm 1 mps 741 mmHg 81%
    07:00 +22°C° 0 mm 1 mps 741 mmHg 76%
    08:00 +24°C° 0 mm 1 mps 742 mmHg 71%
    09:00 +25°C° 0.1 mm 1 mps 742 mmHg 66%
    10:00 +27°C° 0.1 mm 1 mps 742 mmHg 61%
    11:00 +28°C° 0.1 mm 1 mps 742 mmHg 55%
    12:00 +29°C° 0.1 mm 1 mps 742 mmHg 52%
    13:00 +30°C° 0.1 mm 1 mps 741 mmHg 49%
    14:00 +30°C° 0.1 mm 1 mps 741 mmHg 46%
    15:00 +30°C° 0 mm 1 mps 741 mmHg 48%
    16:00 +30°C° 0 mm 2 mps 741 mmHg 51%
    17:00 +29°C° 0 mm 2 mps 741 mmHg 53%
    18:00 +28°C° 0 mm 2 mps 741 mmHg 58%
    19:00 +26°C° 0 mm 2 mps 741 mmHg 63%
    20:00 +24°C° 0 mm 2 mps 741 mmHg 67%
    21:00 +23°C° 0.7 mm 2 mps 741 mmHg 72%
    22:00 +21°C° 0.7 mm 2 mps 741 mmHg 76%
    23:00 +21°C° 0.7 mm 2 mps 741 mmHg 81%

    Tomorrow, 20 August, Monday

    Time Temperature Precipitation Wind Pressure Humidity
    00:00 +20°C° 0.2 mm 2 mps 741 mmHg 82%
    01:00 +20°C° 0.2 mm 2 mps 741 mmHg 83%
    02:00 +19°C° 0.2 mm 2 mps 741 mmHg 85%
    03:00 +19°C° 0 mm 2 mps 740 mmHg 85%
    04:00 +19°C° 0 mm 2 mps 740 mmHg 85%
    05:00 +18°C° 0 mm 2 mps 740 mmHg 85%
    06:00 +20°C° 0 mm 2 mps 740 mmHg 79%
    07:00 +21°C° 0 mm 2 mps 741 mmHg 74%
    08:00 +23°C° 0 mm 2 mps 741 mmHg 68%
    09:00 +25°C° 0 mm 2 mps 741 mmHg 61%
    10:00 +26°C° 0 mm 2 mps 741 mmHg 55%
    11:00 +28°C° 0 mm 2 mps 741 mmHg 49%
    12:00 +29°C° 0 mm 2 mps 741 mmHg 46%
    13:00 +29°C° 0 mm 1 mps 740 mmHg 44%
    14:00 +30°C° 0 mm 1 mps 740 mmHg 41%
    15:00 +30°C° 0 mm 1 mps 740 mmHg 42%
    16:00 +30°C° 0 mm 1 mps 739 mmHg 42%
    17:00 +28°C° 0 mm 0 mps 739 mmHg 42%
    18:00 +28°C° 0 mm 1 mps 739 mmHg 47%
    19:00 +26°C° 0 mm 1 mps 739 mmHg 51%
    20:00 +25°C° 0 mm 1 mps 739 mmHg 56%
    21:00 +24°C° 0 mm 1 mps 739 mmHg 58%
    22:00 +23°C° 0 mm 1 mps 739 mmHg 61%
    23:00 +23°C° 0 mm 2 mps 739 mmHg 63%

    Day after tomorrow, 21 August, Tuesday

    Time Temperature Precipitation Wind Pressure Humidity
    00:00 +22°C° 0 mm 1 mps 739 mmHg 65%
    01:00 +22°C° 0 mm 1 mps 739 mmHg 66%
    02:00 +21°C° 0 mm 1 mps 739 mmHg 68%
    03:00 +21°C° 0 mm 1 mps 739 mmHg 69%
    04:00 +21°C° 0 mm 1 mps 739 mmHg 70%
    05:00 +20°C° 0 mm 1 mps 738 mmHg 72%
    06:00 +22°C° 0 mm 1 mps 739 mmHg 68%
    07:00 +24°C° 0 mm 1 mps 739 mmHg 65%
    08:00 +25°C° 0 mm 2 mps 739 mmHg 61%
    09:00 +27°C° 0 mm 2 mps 739 mmHg 57%
    10:00 +28°C° 0 mm 2 mps 739 mmHg 53%
    11:00 +29°C° 0 mm 3 mps 740 mmHg 48%
    12:00 +30°C° 0 mm 3 mps 739 mmHg 46%
    13:00 +30°C° 0 mm 3 mps 739 mmHg 45%
    14:00 +31°C° 0 mm 3 mps 739 mmHg 43%
    15:00 +30°C° 0.1 mm 3 mps 739 mmHg 48%
    16:00 +29°C° 0.1 mm 4 mps 739 mmHg 53%
    17:00 +28°C° 0.1 mm 4 mps 739 mmHg 58%
    18:00 +26°C° 0.1 mm 4 mps 739 mmHg 64%
    19:00 +25°C° 0.1 mm 4 mps 740 mmHg 71%
    20:00 +22°C° 0.1 mm 4 mps 740 mmHg 77%
    21:00 +21°C° 0 mm 4 mps 740 mmHg 76%
    22:00 +20°C° 0 mm 4 mps 740 mmHg 74%
    23:00 +18°C° 0 mm 4 mps 741 mmHg 73%

    22 August, Wednesday

    Time Temperature Precipitation Wind Pressure Humidity
    00:00 +18°C° 0 mm 3 mps 741 mmHg 75%
    01:00 +17°C° 0 mm 3 mps 741 mmHg 77%
    02:00 +16°C° 0 mm 3 mps 741 mmHg 79%
    03:00 +16°C° 0 mm 3 mps 742 mmHg 81%
    04:00 +14°C° 0 mm 3 mps 742 mmHg 84%
    05:00 +14°C° 0 mm 3 mps 742 mmHg 86%
    06:00 +16°C° 0 mm 3 mps 743 mmHg 81%
    07:00 +18°C° 0 mm 3 mps 743 mmHg 76%
    08:00 +19°C° 0 mm 4 mps 743 mmHg 70%
    09:00 +20°C° 0 mm 4 mps 744 mmHg 63%
    10:00 +22°C° 0 mm 4 mps 744 mmHg 57%
    11:00 +23°C° 0 mm 4 mps 744 mmHg 50%
    12:00 +25°C° 0 mm 4 mps 744 mmHg 48%
    13:00 +25°C° 0 mm 4 mps 744 mmHg 46%
    14:00 +25°C° 0 mm 4 mps 743 mmHg 44%
    15:00 +25°C° 0 mm 4 mps 743 mmHg 45%
    16:00 +25°C° 0 mm 4 mps 743 mmHg 47%
    17:00 +24°C° 0 mm 3 mps 743 mmHg 48%
    18:00 +22°C° 0 mm 3 mps 744 mmHg 53%
    19:00 +20°C° 0 mm 3 mps 744 mmHg 58%
    20:00 +18°C° 0 mm 2 mps 744 mmHg 64%
    21:00 +17°C° 0 mm 2 mps 744 mmHg 65%
    22:00 +17°C° 0 mm 2 mps 744 mmHg 67%
    23:00 +16°C° 0 mm 2 mps 744 mmHg 68%

    23 August, Thursday

    Time Temperature Precipitation Wind Pressure Humidity
    00:00 +16°C° 0 mm 2 mps 744 mmHg 69%
    01:00 +15°C° 0 mm 2 mps 744 mmHg 70%
    02:00 +15°C° 0 mm 2 mps 744 mmHg 70%
    03:00 +14°C° 0 mm 2 mps 744 mmHg 71%
    04:00 +14°C° 0 mm 2 mps 744 mmHg 71%
    05:00 +13°C° 0 mm 2 mps 744 mmHg 71%
    06:00 +15°C° 0 mm 2 mps 744 mmHg 68%
    07:00 +17°C° 0 mm 2 mps 744 mmHg 64%
    08:00 +18°C° 0 mm 3 mps 744 mmHg 60%
    09:00 +20°C° 0 mm 3 mps 744 mmHg 56%
    10:00 +22°C° 0 mm 3 mps 744 mmHg 51%
    11:00 +24°C° 0 mm 3 mps 744 mmHg 46%
    12:00 +25°C° 0 mm 3 mps 744 mmHg 44%
    13:00 +25°C° 0 mm 3 mps 743 mmHg 42%
    14:00 +26°C° 0 mm 3 mps 743 mmHg 40%
    15:00 +26°C° 0 mm 3 mps 743 mmHg 42%
    16:00 +26°C° 0 mm 3 mps 742 mmHg 43%
    17:00 +25°C° 0 mm 3 mps 742 mmHg 45%
    18:00 +22°C° 0 mm 3 mps 742 mmHg 49%
    19:00 +20°C° 0 mm 3 mps 742 mmHg 53%
    20:00 +18°C° 0 mm 3 mps 742 mmHg 57%
    21:00 +18°C° 0 mm 3 mps 742 mmHg 56%
    22:00 +17°C° 0 mm 3 mps 742 mmHg 56%
    23:00 +16°C° 0 mm 3 mps 741 mmHg 56%

    24 August, Friday

    Time Temperature Precipitation Wind Pressure Humidity
    00:00 +16°C° 0 mm 3 mps 741 mmHg 55%
    01:00 +16°C° 0 mm 3 mps 741 mmHg 55%
    02:00 +14°C° 0 mm 3 mps 741 mmHg 54%
    03:00 +14°C° 0 mm 3 mps 741 mmHg 54%
    04:00 +13°C° 0 mm 3 mps 740 mmHg 54%
    05:00 +13°C° 0 mm 3 mps 740 mmHg 53%
    06:00 +16°C° 0 mm 3 mps 740 mmHg 52%
    07:00 +17°C° 0 mm 3 mps 740 mmHg 51%
    08:00 +19°C° 0 mm 3 mps 740 mmHg 49%
    09:00 +21°C° 0 mm 3 mps 740 mmHg 45%
    10:00 +24°C° 0 mm 3 mps 740 mmHg 41%
    11:00 +26°C° 0 mm 3 mps 740 mmHg 37%
    12:00 +27°C° 0 mm 3 mps 739 mmHg 35%
    13:00 +28°C° 0 mm 3 mps 739 mmHg 34%
    14:00 +28°C° 0 mm 3 mps 738 mmHg 32%
    15:00 +28°C° 0 mm 3 mps 738 mmHg 35%
    16:00 +28°C° 0 mm 3 mps 738 mmHg 37%
    17:00 +28°C° 0 mm 2 mps 738 mmHg 40%
    18:00 +26°C° 0 mm 2 mps 737 mmHg 43%
    19:00 +24°C° 0 mm 3 mps 737 mmHg 47%
    20:00 +21°C° 0 mm 3 mps 737 mmHg 50%
    21:00 +20°C° 0 mm 3 mps 737 mmHg 50%
    22:00 +19°C° 0 mm 3 mps 737 mmHg 51%
    23:00 +19°C° 0 mm 3 mps 736 mmHg 52%
    Show more